NOAA 16 DEB

Satellite information

Favourite Embed

Satellite Type and Status

DEBRISIN ORBIT

Key statistics

Satellite NOAA 16 DEB at a glance.

Uptime

9119

Days in orbit

Revolutions

≈ 14.4

Per day

Orbit

SSO

Sun Synchronous Orbit

Inclination

99.0

Latest

Satellite identification and parameters

Extended collection of information and parameters for NOAA 16 DEB.

Object identification

Identified? True

Debris? True

Object name: NOAA 16 DEB

International designator: 2000-055T

Object number (NORAD): 41060

Object ID (CCSDS): 41060

Country: UNITED STATES OF AMERICA (US)

Current information (Y/N): Y

RCS size: SMALL

Orbital parameters

Period: 100.131 minutes

Inclination: 98.9838 deg

SMA: 7142.851 km

Apoapsis: 820.745 km

Periapsis: 708.688 km

RAAN: 131.2841 deg

Eccentricy: 0.00784397

Argument of periapsis: 179.7544 deg

Mean anomaly: 180.3693 deg

Mean motion: 14.38120685 rev/day

Mean motion (dot): 0.00001909 rev/day2

B* drag term: 0.00062319839 1/REarth

Two-line elements (TLE)

Creation date: Sept. 8, 2025, 6:18 p.m.

Reference frame: TEME

Reference center: EARTH

Epoch: Sept. 8, 2025, 2:47 p.m. UTC

TLE line 0: 0 NOAA 16 DEB

TLE line 1: 1 41060U 00055T 25251.61630238 .00001909 00000-0 62320-3 0 9990

TLE line 2: 2 41060 98.9838 131.2841 0078440 179.7544 180.3693 14.38120685511306

Live tracking on map

Real-time ground track for satellite NOAA 16 DEB.

In-orbit conjunctions

A list of the most updated potential collisions computed for object NOAA 16 DEB.

Target Orbit TCA Probability of collision Miss distance Type
CZ-6A DEB SSO 2024-11-13 16:17:34 0.001383118 129.0 (m) DEBRIS
THOR ABLESTAR DEB LEO 2024-08-25 06:46:41 0.0001889036 256.0 (m) DEBRIS

Associated space launch

The NOAA K, L and M POES satellites begin the fifth generation of improved environmental monitoring in support of NOAA missions. The instrument payload has significant improvements and additions/deletions. The instrument changes have effected the spacecraft subsystems and data formats.

NOAA 16 DEB was lifted into orbit during the mission ‘Titan II SLV | NOAA 16’, on board a Titan II SLV space rocket.

The launch took place on Sept. 21, 2000, 10:22 a.m. from Space Launch Complex 4W.

For more information about the launch, click the button.

Launch to space Titan II SLV | NOAA 16
Titan II SLV | NOAA 16

Agency: N/A

Status: Launch Successful

Launch date: Sept. 21, 2000, 10:22 a.m. UTC

Rocket: Titan II SLV

Launch pad: Space Launch Complex 4W

Location: Vandenberg SFB, CA, USA

...

Latest news about this satellite

There are no fresh news available about this satellite. Check back as we update our databases every day.


Newsletter sign-up

Weekly statistics, charts and insights to help you stay on top of the space industry.